TimeCET,TemperatureF,Dew PointF,Humidity,Sea Level PressureIn,VisibilityMPH,Wind Direction,Wind SpeedMPH,Gust SpeedMPH,PrecipitationIn,Events,Conditions,WindDirDegrees,DateUTC
12:00 AM,23.0,21.2,93,29.86,-9999.0,Calm,Calm,-,N/A,,Clear,0,2013-02-08 23:00:00
12:30 AM,21.2,19.4,93,29.86,-9999.0,Calm,Calm,-,N/A,,Clear,0,2013-02-08 23:30:00
1:00 AM,21.2,19.4,93,29.86,-9999.0,Variable,2.3,-,N/A,,Clear,0,2013-02-09 00:00:00
1:30 AM,21.2,19.4,93,29.86,-9999.0,Variable,3.5,-,N/A,,Clear,0,2013-02-09 00:30:00
2:00 AM,19.4,17.6,93,29.86,-9999.0,Variable,3.5,-,N/A,,Clear,0,2013-02-09 01:00:00
2:30 AM,19.4,17.6,93,29.86,-9999.0,North,4.6,-,N/A,,Clear,350,2013-02-09 01:30:00
3:00 AM,19.4,17.6,93,29.86,-9999.0,Variable,3.5,-,N/A,,Clear,0,2013-02-09 02:00:00
3:30 AM,19.4,17.6,93,29.86,-9999.0,Variable,2.3,-,N/A,,Clear,0,2013-02-09 02:30:00
4:00 AM,19.4,17.6,93,29.86,-9999.0,Variable,2.3,-,N/A,,Clear,0,2013-02-09 03:00:00
4:30 AM,19.4,17.6,93,29.86,-9999.0,Variable,2.3,-,N/A,,Clear,0,2013-02-09 03:30:00
5:00 AM,17.6,17.6,100,29.86,-9999.0,North,4.6,-,N/A,,Clear,350,2013-02-09 04:00:00
5:30 AM,21.2,21.2,100,29.86,-9999.0,Variable,3.5,-,N/A,,Clear,0,2013-02-09 04:30:00
6:00 AM,21.2,21.2,100,29.86,-9999.0,Variable,3.5,-,N/A,,Clear,0,2013-02-09 05:00:00
6:30 AM,21.2,21.2,100,29.86,-9999.0,Variable,2.3,-,N/A,,Clear,0,2013-02-09 05:30:00
7:00 AM,23.0,23.0,100,29.89,5.0,Variable,2.3,-,N/A,,Unknown,0,2013-02-09 06:00:00
7:30 AM,24.8,24.8,100,29.89,5.0,Variable,3.5,-,N/A,,Mostly Cloudy,0,2013-02-09 06:30:00
8:00 AM,26.6,26.6,100,29.89,4.3,WNW,5.8,-,N/A,,Mostly Cloudy,300,2013-02-09 07:00:00
8:30 AM,26.6,26.6,100,29.89,4.3,Variable,3.5,-,N/A,,Mostly Cloudy,0,2013-02-09 07:30:00
9:00 AM,28.4,26.6,93,29.89,4.3,Variable,3.5,-,N/A,,Overcast,0,2013-02-09 08:00:00
9:30 AM,30.2,26.6,86,29.89,4.3,Variable,3.5,-,N/A,,Mostly Cloudy,0,2013-02-09 08:30:00
10:00 AM,30.2,26.6,86,29.89,4.3,Variable,3.5,-,N/A,,Mostly Cloudy,0,2013-02-09 09:00:00
10:30 AM,32.0,26.6,80,29.89,5.0,Variable,3.5,-,N/A,,Mostly Cloudy,0,2013-02-09 09:30:00
11:00 AM,32.0,26.6,80,29.92,5.0,Variable,3.5,-,N/A,,Mostly Cloudy,0,2013-02-09 10:00:00
11:30 AM,32.0,24.8,75,29.89,5.0,North,4.6,-,N/A,Snow,Light Snow,350,2013-02-09 10:30:00
12:00 PM,32.0,24.8,75,29.89,5.0,Variable,2.3,-,N/A,Snow,Light Snow,0,2013-02-09 11:00:00
12:30 PM,32.0,24.8,75,29.89,3.1,West,4.6,-,N/A,Snow,Mostly Cloudy,270,2013-02-09 11:30:00
1:00 PM,32.0,26.6,80,29.89,3.1,WSW,5.8,-,N/A,Snow,Mostly Cloudy,250,2013-02-09 12:00:00
1:30 PM,32.0,28.4,87,29.89,-9999.0,West,5.8,-,N/A,Snow,Overcast,280,2013-02-09 12:30:00
2:00 PM,30.2,28.4,93,29.89,-9999.0,West,6.9,-,N/A,Snow,Overcast,280,2013-02-09 13:00:00
2:30 PM,30.2,30.2,100,29.89,3.1,WNW,6.9,-,N/A,Snow,Overcast,300,2013-02-09 13:30:00
3:00 PM,32.0,30.2,93,29.89,3.7,WNW,8.1,-,N/A,Snow,Light Snow,300,2013-02-09 14:00:00
3:30 PM,30.2,30.2,100,29.89,1.9,NW,9.2,-,N/A,Snow,Light Snow,310,2013-02-09 14:30:00
4:00 PM,30.2,30.2,100,29.92,1.4,NW,8.1,-,N/A,Snow,Light Snow,310,2013-02-09 15:00:00
4:30 PM,30.2,30.2,100,29.92,1.4,NW,6.9,-,N/A,Snow,Light Snow,310,2013-02-09 15:30:00
5:00 PM,30.2,30.2,100,29.92,1.5,NW,5.8,-,N/A,Snow,Light Snow,320,2013-02-09 16:00:00
5:30 PM,30.2,30.2,100,29.92,1.5,NW,5.8,-,N/A,Snow,Light Snow,320,2013-02-09 16:30:00
6:00 PM,30.2,30.2,100,29.92,1.5,NW,8.1,-,N/A,Snow,Light Snow,310,2013-02-09 17:00:00
6:30 PM,28.4,28.4,100,29.92,1.9,NW,5.8,-,N/A,Snow,Light Snow,310,2013-02-09 17:30:00
7:00 PM,28.4,28.4,100,29.92,1.9,NW,8.1,-,N/A,Snow,Light Snow,320,2013-02-09 18:00:00
7:30 PM,28.4,28.4,100,29.92,1.9,NW,6.9,-,N/A,Snow,Light Snow,320,2013-02-09 18:30:00
8:00 PM,28.4,28.4,100,29.92,1.9,NNW,8.1,-,N/A,Snow,Light Snow,330,2013-02-09 19:00:00
8:30 PM,28.4,28.4,100,29.92,1.9,NW,8.1,-,N/A,Rain-Snow,Freezing Rain,320,2013-02-09 19:30:00
9:00 PM,28.4,28.4,100,29.92,1.9,NNW,9.2,-,N/A,Rain-Snow,Freezing Rain,330,2013-02-09 20:00:00
9:30 PM,26.6,26.6,100,29.89,2.5,NNW,8.1,-,N/A,,Scattered Clouds,330,2013-02-09 20:30:00
10:00 PM,26.6,26.6,100,29.92,2.5,NNW,5.8,-,N/A,,Mist,330,2013-02-09 21:00:00
10:30 PM,23.0,23.0,100,29.92,3.1,Variable,3.5,-,N/A,,Mostly Cloudy,0,2013-02-09 21:30:00
11:00 PM,26.6,26.6,100,29.92,2.2,WNW,4.6,-,N/A,,Overcast,300,2013-02-09 22:00:00
11:30 PM,26.6,26.6,100,29.92,2.2,Variable,3.5,-,N/A,,Overcast,0,2013-02-09 22:30:00